Weather History for LIED - March, 2013

Change the Weather History Date:

Friday, March 8, 2013

  Actual Average Record
Temperature  
Mean Temperature 59 °F -  
Max Temperature 67 °F 63 °F 68 °F (2002)
Min Temperature 50 °F 44 °F 30 °F (2005)
Degree Days  
Heating Degree Days 6    
Growing Degree Days 9 (Base 50)    
Moisture  
Dew Point 53 °F    
Average Humidity 83    
Maximum Humidity 94    
Minimum Humidity 57    
Precipitation  
Precipitation 0.00 in 0.07 in - ()
Sea Level Pressure  
Sea Level Pressure 29.75 in    
Wind  
Wind Speed 5 mph ()    
Max Wind Speed 10 mph    
Max Gust Speed -    
Visibility 6.0 miles    
Events Rain , Thunderstorm    
Averages and records for this station are not official NWS values.
T = Trace of Precipitation, MM = Missing Value Source: Averaged Metar Reports

Daily Weather History Graph

Daily Weather History Graph

Search for Another Location

Airport or City:

Trip Planner

Search our weather history database for the weather conditions in past years. The results will help you decide how hot, cold, wet, or windy it might be!

Date:

Astronomy

Mar. 08, 2013 Rise Set
Actual Time 6:46 AM CET 6:23 PM CET
Civil Twilight 6:19 AM CET 6:50 PM CET
Nautical Twilight 5:48 AM CET 7:21 PM CET
Astronomical Twilight 5:17 AM CET 7:53 PM CET
Moon 4:18 AM CET (3/8) 3:01 PM CET (3/8)
Length of Visible Light 12h 31m
Length of Day
11h 37m
Waning Crescent, 14% of the Moon is Illuminated
Mar 8
Waning Crescent
Mar 11
New
Mar 19
First Quarter
Mar 27
Full
Apr 3
Last Quarter

Hourly Weather History & Observations

Time (CET) Temp. Dew Point Humidity Pressure Visibility Wind Dir Wind Speed Gust Speed Precip Events Conditions
12:55 AM 51.8 °F 48.2 °F 88% 29.77 in 6.2 mi East 2.3 mph - N/A   Scattered Clouds
1:00 AM 52 °F 47 °F 79% 29.78 in 6 mi East 2.3 mph - -   Mostly Cloudy
4:00 AM 54 °F 49 °F 79% 29.75 in 7 mi South 2.3 mph - - Rain Light Rain
4:55 AM 53.6 °F 50.0 °F 88% 29.71 in 6.2 mi SSE 3.5 mph - N/A Rain Light Rain
5:55 AM 53.6 °F 50.0 °F 88% 29.71 in 6.2 mi SE 4.6 mph - N/A Rain Light Rain
6:55 AM 55.4 °F 51.8 °F 88% 29.68 in 5.0 mi SE 9.2 mph - N/A Rain Light Rain
7:00 AM 56 °F 51 °F 79% 29.70 in 5 mi SE 9.2 mph - - Rain Light Rain
7:55 AM 57.2 °F 53.6 °F 88% 29.71 in 5.0 mi SE 5.8 mph - N/A Rain Light Rain
8:16 AM 57.2 °F 53.6 °F 88% 29.71 in 4.3 mi SW 2.3 mph - N/A Rain , Thunderstorm Light Thunderstorms and Rain
9:15 AM 59.0 °F 55.4 °F 88% 29.68 in 4.3 mi WSW 9.2 mph - N/A   Scattered Clouds
10:00 AM 62 °F 57 °F 79% 29.74 in 4 mi WSW 8.1 mph - - Thunderstorm Thunderstorm
10:55 AM 64.4 °F 59.0 °F 83% 29.71 in 4.3 mi West 10.4 mph - N/A   Scattered Clouds
12:55 PM 66.2 °F 55.4 °F 68% 29.74 in 5.6 mi WNW 9.2 mph - N/A   Scattered Clouds
1:00 PM 67 °F 55 °F 57% 29.75 in 6 mi WNW 9.2 mph - -   Mist
1:55 PM 66.2 °F 57.2 °F 73% 29.74 in 6.2 mi West 9.2 mph - N/A   Scattered Clouds
4:00 PM 65 °F 58 °F 73% 29.76 in 12 mi WNW 8.1 mph - -   Partly Cloudy
4:55 PM 64.4 °F 57.2 °F 77% 29.77 in 6.2 mi NW 10.4 mph - N/A   Partly Cloudy
6:55 PM 55.4 °F 51.8 °F 88% 29.80 in - NNW 5.8 mph - N/A   Clear
7:00 PM 56 °F 52 °F 80% 29.82 in 12 mi NNW 5.8 mph - -  
7:55 PM 55.4 °F 53.6 °F 94% 29.80 in 6.2 mi WNW 4.6 mph - N/A   Partly Cloudy
8:55 PM 53.6 °F 51.8 °F 94% 29.80 in 5.0 mi WNW 4.6 mph - N/A   Scattered Clouds
9:55 PM 55.4 °F 51.8 °F 88% 29.83 in 5.0 mi WNW 5.8 mph - N/A   Scattered Clouds
10:55 PM 53.6 °F 50.0 °F 88% 29.80 in 5.0 mi NW 5.8 mph - N/A   Scattered Clouds
11:55 PM 50.0 °F 46.4 °F 87% 29.80 in 5.0 mi North 3.5 mph - N/A   Scattered Clouds